Regional Weather Roundup
Issued by NWS

Home | Current Version | Previous Version | Graphics & Text | Print | Product List | Glossary On
Versions: 1 2 3 4 5 6 7 8 9 10 11 12 13 14 15 16 17 18 19 20 21 22 23 24 25 26 27 28 29 30 31 32 33 34 35 36 37 38 39 40 41 42 43 44 45 46 47 48 49 50
000
ASUS43 KBIS 011259
RWRND

NORTH DAKOTA REGIONAL WEATHER ROUNDUP
NATIONAL WEATHER SERVICE BISMARCK ND
800 AM CDT FRI AUG 01 2014

NOTE: "FAIR" INDICATES FEW OR NO CLOUDS BELOW 12,000 FEET WITH NO
SIGNIFICANT WEATHER AND/OR OBSTRUCTIONS TO VISIBILITY.


NDZ001>003-009>011-017-011400-
NORTHWEST NORTH DAKOTA

CITY           SKY/WX    TMP DP  RH WIND       PRES   REMARKS
WILLISTON      MOSUNNY   70  56  61 NE5       30.06R
MINOT          SUNNY     61  58  90 CALM      30.07R
$$

NDZ018>021-031>035-040>046-011400-
SOUTHWEST NORTH DAKOTA

CITY           SKY/WX    TMP DP  RH WIND       PRES   REMARKS
BISMARCK       SUNNY     62  56  80 NE7       30.07S
DICKINSON      SUNNY     60  55  83 E5        30.04R
GARRISON         N/A     64  59  83 E5        30.07R
HETTINGER ARPT SUNNY     56  52  86 CALM      30.07S
$$

NDZ004>008-012>016-024-026-027-054-011400-
NORTHEAST NORTH DAKOTA

CITY           SKY/WX    TMP DP  RH WIND       PRES   REMARKS
GRAND FORKS    SUNNY     63  60  90 CALM      30.05S
DEVILS LAKE    SUNNY     63  57  82 NE3       30.07S
$$

NDZ022-023-025-028>030-036>039-047>053-011400-
SOUTHEAST NORTH DAKOTA

CITY           SKY/WX    TMP DP  RH WIND       PRES   REMARKS
FARGO          SUNNY     62  59  90 NW5       30.06R
$$



USA.gov is the U.S. government's official web portal to all federal, state and local government web resources and services.